Winter Haven, FL

12:57 AM EDT on September 23, 2017 (GMT -0400)
Winter Haven's-Gilbert

Weather History for KGIF - May, 2013

Change the Weather History Date:

Friday, May 3, 2013

  Actual Average Record
Temperature  
Mean Temperature 74 °F -  
Max Temperature 84 °F 87 °F 97 °F (1986)
Min Temperature 64 °F 63 °F 51 °F (1987)
Cooling Degree Days 9    
Growing Degree Days 24 (Base 50)    
Moisture  
Dew Point 66 °F    
Average Humidity 87    
Maximum Humidity 100    
Minimum Humidity 48    
Precipitation  
Precipitation 0.39 in - - ()
Sea Level Pressure  
Sea Level Pressure 29.79 in    
Wind  
Wind Speed 6 mph (NW)    
Max Wind Speed 16 mph    
Max Gust Speed 24 mph    
Visibility 7 miles    
Events Fog , Rain    
Averages and records for this station are not official NWS values.
T = Trace of Precipitation, MM = Missing Value Source: NWS Daily Summary

Daily Weather History Graph

Daily Weather History Graph

Search for Another Location

Airport or City:

Trip Planner

Search our weather history database for the weather conditions in past years. The results will help you decide how hot, cold, wet, or windy it might be!

Date:

Astronomy

May. 03, 2013 Rise Set
Actual Time 6:45 AM EDT 8:02 PM EDT
Civil Twilight 6:20 AM EDT 8:27 PM EDT
Nautical Twilight 5:50 AM EDT 8:57 PM EDT
Astronomical Twilight 5:20 AM EDT 9:28 PM EDT
Moon 2:36 AM EDT (5/3) 2:25 PM EDT (5/3)
Length of Visible Light 14h 07m
Length of Day
13h 17m
Last Quarter, 37% of the Moon is Illuminated
May 3
Last Quarter
May 9
New
May 18
First Quarter
May 25
Full
May 31
Last Quarter

Hourly Weather History & Observations

Time (EDT) Temp. Heat Index Dew Point Humidity Pressure Visibility Wind Dir Wind Speed Gust Speed Precip Events Conditions
12:05 AM 69.1 °F - 66.9 °F 93% 29.87 in 10.0 mi South 5.8 mph - N/A   Overcast
12:53 AM 69.1 °F - 66.9 °F 93% 29.86 in 10.0 mi South 6.9 mph - N/A   Scattered Clouds
1:53 AM 69.1 °F - 66.9 °F 93% 29.83 in 10.0 mi SSE 6.9 mph - N/A   Scattered Clouds
2:53 AM 69.1 °F - 66.9 °F 93% 29.81 in 10.0 mi SSE 6.9 mph - N/A   Clear
3:53 AM 66.9 °F - 66.0 °F 97% 29.80 in 10.0 mi SW 3.5 mph - N/A   Mostly Cloudy
4:53 AM 66.9 °F - 66.0 °F 97% 29.80 in 9.0 mi Calm Calm - N/A   Clear
5:36 AM 66.0 °F - 64.0 °F 93% 29.81 in 6.0 mi Calm Calm - N/A   Scattered Clouds
5:44 AM 66.0 °F - 64.9 °F 96% 29.81 in 5.0 mi Calm Calm - N/A   Mostly Cloudy
5:47 AM 66.2 °F - 64.4 °F 94% 29.81 in 2.0 mi Calm Calm - N/A   Mostly Cloudy
5:51 AM 66.2 °F - 66.2 °F 100% 29.81 in 0.8 mi Calm Calm - N/A   Mist
5:53 AM 66.0 °F - 66.0 °F 100% 29.81 in 0.5 mi Calm Calm - N/A Fog Fog
6:18 AM 66.0 °F - 64.9 °F 96% 29.81 in 0.5 mi North - - N/A Fog Fog
6:31 AM 64.9 °F - 64.9 °F 100% 29.81 in 0.2 mi North - - N/A Fog Fog
6:53 AM 66.0 °F - 64.9 °F 96% 29.81 in 0.8 mi Calm Calm - N/A   Mist
7:53 AM 66.9 °F - 66.9 °F 100% 29.81 in 0.2 mi North 4.6 mph - N/A Fog Fog
8:51 AM 68.0 °F - 66.2 °F 94% 29.83 in 2.0 mi NNE 4.6 mph - N/A   Overcast
8:53 AM 68.0 °F - 66.9 °F 96% 29.82 in 2.5 mi Variable 3.5 mph - N/A   Overcast
9:00 AM 68.0 °F - 66.9 °F 96% 29.83 in 4.0 mi Calm Calm - N/A   Overcast
9:23 AM 69.1 °F - 66.9 °F 93% 29.82 in 7.0 mi NNW 3.5 mph - N/A   Overcast
9:29 AM 69.1 °F - 66.9 °F 93% 29.82 in 8.0 mi NNW 3.5 mph - N/A   Overcast
9:36 AM 70.0 °F - 66.9 °F 90% 29.82 in 9.0 mi NNW 4.6 mph - N/A   Overcast
9:53 AM 71.1 °F - 66.9 °F 87% 29.82 in 10.0 mi Calm Calm - N/A   Mostly Cloudy
10:36 AM 75.9 °F - 66.9 °F 74% 29.83 in 10.0 mi North 5.8 mph - N/A   Scattered Clouds
10:53 AM 77.0 °F - 66.0 °F 69% 29.82 in 10.0 mi Variable 3.5 mph - N/A   Partly Cloudy
11:25 AM 77.0 °F - 66.0 °F 69% 29.82 in 10.0 mi Variable 5.8 mph - N/A   Mostly Cloudy
11:32 AM 79.0 °F - 66.0 °F 64% 29.82 in 10.0 mi Variable 6.9 mph - N/A   Partly Cloudy
11:53 AM 79.0 °F - 64.9 °F 62% 29.81 in 10.0 mi NW 5.8 mph - N/A   Partly Cloudy
12:53 PM 80.1 °F 81.7 °F 64.0 °F 58% 29.79 in 10.0 mi WNW 6.9 mph - N/A   Partly Cloudy
1:53 PM 82.9 °F 84.6 °F 64.9 °F 54% 29.76 in 10.0 mi North 9.2 mph - N/A   Scattered Clouds
2:53 PM 84.9 °F 85.9 °F 63.0 °F 48% 29.74 in 10.0 mi NW 10.4 mph - N/A   Scattered Clouds
3:48 PM 73.4 °F - 68.0 °F 83% 29.74 in 1.5 mi West 16.1 mph 21.9 mph 0.09 in Rain Rain
3:53 PM 71.1 °F - 66.9 °F 87% 29.74 in 1.2 mi SW 11.5 mph 21.9 mph 0.11 in Rain Rain
3:58 PM 71.1 °F - 68.0 °F 90% 29.74 in 3.0 mi WSW 11.5 mph - 0.00 in Rain Light Rain
4:40 PM 71.1 °F - 68.0 °F 90% 29.75 in 1.5 mi NNW 15.0 mph 24.2 mph 0.11 in Rain Light Rain
4:53 PM 70.0 °F - 68.0 °F 93% 29.75 in 1.2 mi NNW 10.4 mph - 0.24 in Rain Heavy Rain
4:58 PM 70.0 °F - 68.0 °F 93% 29.75 in 2.0 mi NNW 10.4 mph - 0.01 in Rain Rain
5:04 PM 70.0 °F - 68.0 °F 93% 29.75 in 3.0 mi NW 9.2 mph - 0.03 in Rain Rain
5:53 PM 75.0 °F - 69.1 °F 82% 29.73 in 10.0 mi North 11.5 mph - 0.04 in   Partly Cloudy
6:53 PM 75.0 °F - 69.1 °F 82% 29.73 in 10.0 mi NNW 10.4 mph - N/A   Clear
7:53 PM 72.0 °F - 66.9 °F 84% 29.73 in 10.0 mi NNW 6.9 mph - N/A   Clear
8:37 PM 72.0 °F - 66.9 °F 84% 29.75 in 10.0 mi North 12.7 mph - N/A   Mostly Cloudy
8:53 PM 71.1 °F - 68.0 °F 90% 29.75 in 10.0 mi North 12.7 mph - N/A   Overcast
9:00 PM 71.1 °F - 68.0 °F 90% 29.76 in 10.0 mi NNW 10.4 mph - N/A   Overcast
9:14 PM 70.0 °F - 66.9 °F 90% 29.76 in 10.0 mi NNW 12.7 mph - N/A   Mostly Cloudy
9:38 PM 70.0 °F - 66.9 °F 90% 29.76 in 10.0 mi NNW 10.4 mph - N/A   Mostly Cloudy
9:53 PM 69.1 °F - 66.0 °F 90% 29.76 in 10.0 mi NNW 13.8 mph - N/A   Mostly Cloudy
10:39 PM 68.0 °F - 64.9 °F 90% 29.76 in 10.0 mi NW 10.4 mph - N/A   Overcast
10:53 PM 68.0 °F - 64.9 °F 90% 29.75 in 10.0 mi NW 11.5 mph - N/A   Overcast
11:53 PM 68.0 °F - 66.0 °F 93% 29.74 in 8.0 mi WNW 9.2 mph - N/A   Overcast